Time,TemperatureF,DewpointF,PressureIn,WindDirection,WindDirectionDegrees,WindSpeedMPH,WindSpeedGustMPH,Humidity,HourlyPrecipIn,Conditions,Clouds,dailyrainin,SoftwareType,DateUTC
2013-06-06 00:02:00,68.1,57.8,27.88,NNE,23,0.0,0.0,70,0.00,,,0.00,WSDL version 420,2013-06-06 04:02:00,
2013-06-06 00:07:00,67.9,57.9,27.88,NE,45,0.0,0.0,71,0.00,,,0.00,WSDL version 420,2013-06-06 04:07:00,
2013-06-06 00:12:00,67.9,58.0,27.88,ENE,68,0.0,0.0,70,0.00,,,0.00,WSDL version 420,2013-06-06 04:12:00,
2013-06-06 00:17:00,68.0,57.9,27.88,ENE,68,0.0,0.0,70,0.00,,,0.00,WSDL version 420,2013-06-06 04:17:00,
2013-06-06 00:22:00,67.9,58.1,27.88,ENE,68,0.0,0.0,71,0.00,,,0.00,WSDL version 420,2013-06-06 04:22:00,
2013-06-06 00:27:00,67.7,58.0,27.88,ENE,68,0.0,0.0,71,0.00,,,0.00,WSDL version 420,2013-06-06 04:27:00,
2013-06-06 00:32:00,67.6,57.9,27.88,NE,45,0.0,0.0,71,0.00,,,0.00,WSDL version 420,2013-06-06 04:32:00,
2013-06-06 00:37:00,67.6,57.9,27.88,NE,45,0.0,0.0,71,0.00,,,0.00,WSDL version 420,2013-06-06 04:37:00,
2013-06-06 00:42:00,67.6,57.9,27.88,ENE,60,0.0,0.0,71,0.00,,,0.00,WSDL version 420,2013-06-06 04:42:00,
2013-06-06 00:47:00,67.6,57.8,27.88,NNE,23,0.4,0.9,71,0.00,,,0.00,WSDL version 420,2013-06-06 04:47:00,
2013-06-06 00:52:00,67.5,57.8,27.85,ENE,60,0.0,0.9,71,0.00,,,0.00,WSDL version 420,2013-06-06 04:52:00,
2013-06-06 00:57:00,67.5,57.7,27.85,ENE,68,0.0,0.9,71,0.00,,,0.00,WSDL version 420,2013-06-06 04:57:00,
2013-06-06 01:02:00,67.3,57.8,27.85,ENE,68,0.0,0.9,72,0.00,,,0.00,WSDL version 420,2013-06-06 05:02:00,
2013-06-06 01:07:00,67.2,57.8,27.85,ENE,68,0.0,0.0,72,0.00,,,0.00,WSDL version 420,2013-06-06 05:07:00,
2013-06-06 01:12:00,67.2,57.9,27.85,SE,135,0.0,0.0,72,-99.99,,,-99.99,WSDL version 420,2013-06-06 05:12:00,
2013-06-06 01:17:00,67.1,57.8,27.85,East,90,0.0,0.0,72,0.00,,,0.00,WSDL version 420,2013-06-06 05:17:00,
2013-06-06 01:22:00,67.1,58.0,27.85,East,90,0.0,0.0,73,0.00,,,0.00,WSDL version 420,2013-06-06 05:22:00,
2013-06-06 01:27:00,67.2,58.2,27.85,East,90,0.0,0.0,72,0.00,,,0.00,WSDL version 420,2013-06-06 05:27:00,
2013-06-06 01:32:00,67.1,58.2,27.85,East,90,0.0,0.0,73,0.00,,,0.00,WSDL version 420,2013-06-06 05:32:00,
2013-06-06 01:37:00,67.1,58.2,27.85,East,90,0.0,0.0,73,0.00,,,0.00,WSDL version 420,2013-06-06 05:37:00,
2013-06-06 01:42:00,67.0,58.1,27.85,East,90,0.0,0.0,73,0.00,,,0.00,WSDL version 420,2013-06-06 05:42:00,
2013-06-06 01:47:00,66.9,58.0,27.85,East,90,0.0,0.0,73,0.00,,,0.00,WSDL version 420,2013-06-06 05:47:00,
2013-06-06 01:52:00,66.9,57.9,27.82,ENE,75,0.0,0.0,73,0.00,,,0.00,WSDL version 420,2013-06-06 05:52:00,
2013-06-06 01:59:00,66.7,57.7,27.82,ENE,68,0.0,0.0,73,0.00,,,0.00,WSDL version 420,2013-06-06 05:59:00,
2013-06-06 02:04:00,66.6,57.6,27.82,ENE,68,0.0,0.0,73,0.00,,,0.00,WSDL version 420,2013-06-06 06:04:00,
2013-06-06 02:09:00,66.7,58.2,27.82,ENE,68,0.0,0.0,74,0.00,,,0.00,WSDL version 420,2013-06-06 06:09:00,
2013-06-06 02:14:00,66.7,58.2,27.82,ENE,68,0.0,0.0,74,0.00,,,0.00,WSDL version 420,2013-06-06 06:14:00,
2013-06-06 02:19:00,66.7,58.2,27.82,ENE,68,0.0,0.0,74,0.00,,,0.00,WSDL version 420,2013-06-06 06:19:00,
2013-06-06 02:24:00,66.7,58.1,27.82,ENE,68,0.0,0.0,74,0.00,,,0.00,WSDL version 420,2013-06-06 06:24:00,
2013-06-06 02:29:00,66.6,58.0,27.82,ENE,68,0.0,0.0,74,0.00,,,0.00,WSDL version 420,2013-06-06 06:29:00,
2013-06-06 02:34:00,66.6,58.0,27.82,ENE,60,0.0,0.0,74,0.00,,,0.00,WSDL version 420,2013-06-06 06:34:00,
2013-06-06 02:39:00,66.5,57.9,27.82,ENE,68,0.0,0.0,74,0.00,,,0.00,WSDL version 420,2013-06-06 06:39:00,
2013-06-06 02:44:00,66.5,57.9,27.82,ENE,68,0.0,0.0,74,0.00,,,0.00,WSDL version 420,2013-06-06 06:44:00,
2013-06-06 02:49:00,66.4,57.9,27.82,SSE,158,0.0,0.0,74,0.00,,,0.00,WSDL version 420,2013-06-06 06:49:00,
2013-06-06 02:54:00,66.4,57.9,27.79,SE,135,0.0,0.0,74,0.00,,,0.00,WSDL version 420,2013-06-06 06:54:00,
2013-06-06 02:59:00,66.4,57.9,27.79,SE,135,0.0,0.0,74,0.00,,,0.00,WSDL version 420,2013-06-06 06:59:00,
2013-06-06 03:04:00,66.4,58.2,27.79,East,90,0.0,0.0,75,0.00,,,0.00,WSDL version 420,2013-06-06 07:04:00,
2013-06-06 03:09:00,66.4,58.2,27.79,East,90,0.0,0.0,75,0.00,,,0.00,WSDL version 420,2013-06-06 07:09:00,
2013-06-06 03:14:00,66.4,58.2,27.79,East,101,0.0,0.0,75,0.00,,,0.00,WSDL version 420,2013-06-06 07:14:00,
2013-06-06 03:19:00,66.4,58.2,27.79,East,90,0.0,0.0,75,0.00,,,0.00,WSDL version 420,2013-06-06 07:19:00,
2013-06-06 03:24:00,66.3,58.1,27.79,NNE,23,0.0,2.7,75,0.00,,,0.00,WSDL version 420,2013-06-06 07:24:00,
2013-06-06 03:29:00,66.2,57.8,27.79,NW,323,0.0,2.7,74,0.00,,,0.00,WSDL version 420,2013-06-06 07:29:00,
2013-06-06 03:34:00,66.2,57.7,27.79,East,83,0.0,1.6,74,0.00,,,0.00,WSDL version 420,2013-06-06 07:34:00,
2013-06-06 03:39:00,66.2,57.7,27.79,NE,54,0.0,0.9,74,0.00,,,0.00,WSDL version 420,2013-06-06 07:39:00,
2013-06-06 03:44:00,66.2,57.7,27.79,NE,45,0.0,0.9,74,0.00,,,0.00,WSDL version 420,2013-06-06 07:44:00,
2013-06-06 03:50:00,66.1,57.6,27.79,ENE,75,0.0,0.0,74,0.00,,,0.00,WSDL version 420,2013-06-06 07:50:00,
2013-06-06 03:55:00,66.0,57.5,27.79,ESE,113,0.0,0.0,74,0.00,,,0.00,WSDL version 420,2013-06-06 07:55:00,
2013-06-06 04:00:00,66.0,57.5,27.79,NE,45,0.0,0.0,74,0.00,,,0.00,WSDL version 420,2013-06-06 08:00:00,
2013-06-06 04:05:00,66.0,57.3,27.79,SE,124,0.0,0.0,73,0.00,,,0.00,WSDL version 420,2013-06-06 08:05:00,
2013-06-06 04:10:00,66.0,57.1,27.79,SE,135,0.0,0.0,73,0.00,,,0.00,WSDL version 420,2013-06-06 08:10:00,
2013-06-06 04:15:00,65.9,57.2,27.79,SW,218,0.0,0.0,74,0.00,,,0.00,WSDL version 420,2013-06-06 08:15:00,
2013-06-06 04:20:00,65.8,57.3,27.79,NNW,338,0.0,0.0,74,0.00,,,0.00,WSDL version 420,2013-06-06 08:20:00,
2013-06-06 04:25:00,65.8,57.3,27.79,NNW,338,0.0,0.0,74,0.00,,,0.00,WSDL version 420,2013-06-06 08:25:00,
2013-06-06 04:30:00,65.8,57.3,27.79,WNW,293,0.0,0.0,74,0.00,,,0.00,WSDL version 420,2013-06-06 08:30:00,
2013-06-06 04:35:00,65.8,57.3,27.79,WNW,293,0.0,0.0,74,0.00,,,0.00,WSDL version 420,2013-06-06 08:35:00,
2013-06-06 04:40:00,65.7,57.2,27.79,WNW,293,0.0,0.0,74,0.00,,,0.00,WSDL version 420,2013-06-06 08:40:00,
2013-06-06 04:45:00,65.7,57.2,27.79,WNW,293,0.0,0.0,74,0.00,,,0.00,WSDL version 420,2013-06-06 08:45:00,
2013-06-06 04:52:00,65.5,57.2,27.79,WNW,293,0.0,0.0,75,0.00,,,0.00,WSDL version 420,2013-06-06 08:52:00,
2013-06-06 04:57:00,65.5,57.4,27.79,WNW,293,0.0,0.0,75,0.00,,,0.00,WSDL version 420,2013-06-06 08:57:00,
2013-06-06 05:02:00,65.5,57.4,27.79,WNW,293,0.0,0.0,75,-99.99,,,-99.99,WSDL version 420,2013-06-06 09:02:00,
2013-06-06 05:07:00,65.3,57.2,27.79,WNW,293,0.0,0.0,75,0.00,,,0.00,WSDL version 420,2013-06-06 09:07:00,
2013-06-06 05:12:00,65.4,57.1,27.79,WNW,293,0.0,0.0,74,0.00,,,0.00,WSDL version 420,2013-06-06 09:12:00,
2013-06-06 05:17:00,65.3,57.2,27.79,WNW,293,0.0,0.0,75,0.00,,,0.00,WSDL version 420,2013-06-06 09:17:00,
2013-06-06 05:22:00,65.3,57.2,27.79,WNW,293,0.0,0.0,75,0.00,,,0.00,WSDL version 420,2013-06-06 09:22:00,
2013-06-06 05:27:00,65.3,57.2,27.79,WNW,293,0.0,0.0,75,0.00,,,0.00,WSDL version 420,2013-06-06 09:27:00,
2013-06-06 05:32:00,65.1,57.0,27.79,WNW,293,0.0,0.0,75,0.00,,,0.00,WSDL version 420,2013-06-06 09:32:00,
2013-06-06 05:37:00,65.1,57.0,27.79,WNW,293,0.0,0.0,75,0.00,,,0.00,WSDL version 420,2013-06-06 09:37:00,
2013-06-06 05:42:00,65.1,57.0,27.79,WNW,293,0.0,0.0,75,0.00,,,0.00,WSDL version 420,2013-06-06 09:42:00,
2013-06-06 05:47:00,65.1,57.0,27.79,WNW,293,0.0,0.0,75,0.00,,,0.00,WSDL version 420,2013-06-06 09:47:00,
2013-06-06 05:52:00,65.0,56.9,27.79,WNW,293,0.0,0.0,75,0.00,,,0.00,WSDL version 420,2013-06-06 09:52:00,
2013-06-06 05:57:00,64.9,56.8,27.79,WNW,293,0.0,0.0,75,-99.99,,,-99.99,WSDL version 420,2013-06-06 09:57:00,
2013-06-06 06:02:00,64.9,56.8,27.79,WNW,293,0.0,0.0,75,0.00,,,0.00,WSDL version 420,2013-06-06 10:02:00,
2013-06-06 06:12:00,64.9,56.8,27.79,SW,225,0.0,0.0,75,0.00,,,0.00,WSDL version 420,2013-06-06 10:12:00,
2013-06-06 06:22:00,64.9,56.8,27.79,SSW,203,0.0,0.0,75,0.00,,,0.00,WSDL version 420,2013-06-06 10:22:00,
2013-06-06 06:27:00,64.9,56.8,27.79,SSW,203,0.0,0.0,75,0.00,,,0.00,WSDL version 420,2013-06-06 10:27:00,
2013-06-06 06:32:00,64.9,56.8,27.79,South,174,0.0,0.0,75,0.00,,,0.00,WSDL version 420,2013-06-06 10:32:00,
2013-06-06 06:37:00,64.9,56.8,27.79,NNE,23,0.0,0.0,75,0.00,,,0.00,WSDL version 420,2013-06-06 10:37:00,
2013-06-06 06:42:00,64.9,56.8,27.79,SSE,158,0.0,0.0,75,0.00,,,0.00,WSDL version 420,2013-06-06 10:42:00,
2013-06-06 06:47:00,65.0,56.9,27.79,WNW,293,0.0,0.0,75,0.00,,,0.00,WSDL version 420,2013-06-06 10:47:00,
2013-06-06 06:52:00,64.9,56.8,27.76,WNW,293,0.0,0.0,75,0.00,,,0.00,WSDL version 420,2013-06-06 10:52:00,
2013-06-06 06:57:00,64.9,56.8,27.76,WNW,293,0.0,0.0,75,0.00,,,0.00,WSDL version 420,2013-06-06 10:57:00,
2013-06-06 07:02:00,64.9,56.8,27.76,WNW,293,0.0,0.0,75,0.00,,,0.00,WSDL version 420,2013-06-06 11:02:00,
2013-06-06 07:07:00,64.9,56.8,27.79,WNW,293,0.0,0.0,75,0.00,,,0.00,WSDL version 420,2013-06-06 11:07:00,
2013-06-06 07:12:00,65.1,57.0,27.79,WNW,293,0.0,0.0,75,0.00,,,0.00,WSDL version 420,2013-06-06 11:12:00,
2013-06-06 07:17:00,65.1,57.4,27.79,WNW,293,0.0,0.0,76,0.00,,,0.00,WSDL version 420,2013-06-06 11:17:00,
2013-06-06 07:22:00,65.1,57.4,27.79,SW,225,0.0,0.0,76,0.00,,,0.00,WSDL version 420,2013-06-06 11:22:00,
2013-06-06 07:27:00,65.2,57.3,27.79,East,98,0.0,0.0,76,0.00,,,0.00,WSDL version 420,2013-06-06 11:27:00,
2013-06-06 07:32:00,65.2,57.4,27.79,SSE,152,0.0,0.0,76,0.00,,,0.00,WSDL version 420,2013-06-06 11:32:00,
2013-06-06 07:37:00,65.2,57.2,27.79,NW,323,0.0,0.0,75,0.00,,,0.00,WSDL version 420,2013-06-06 11:37:00,
2013-06-06 07:42:00,65.3,57.3,27.79,NE,45,0.0,0.0,76,0.00,,,0.00,WSDL version 420,2013-06-06 11:42:00,
2013-06-06 07:47:00,65.3,57.5,27.79,NE,45,0.0,0.0,76,-99.99,,,-99.99,WSDL version 420,2013-06-06 11:47:00,
2013-06-06 07:52:00,65.4,57.7,27.79,NE,45,0.0,0.0,76,0.00,,,0.00,WSDL version 420,2013-06-06 11:52:00,
2013-06-06 07:57:00,65.5,57.7,27.79,NE,45,0.0,0.0,76,-99.99,,,-99.99,WSDL version 420,2013-06-06 11:57:00,
2013-06-06 08:02:00,65.5,57.9,27.79,SE,143,0.0,0.0,77,0.00,,,0.00,WSDL version 420,2013-06-06 12:02:00,
2013-06-06 08:07:00,65.7,58.3,27.79,SSE,158,0.0,0.0,77,0.00,,,0.00,WSDL version 420,2013-06-06 12:07:00,
2013-06-06 08:17:00,65.7,58.3,27.76,SSE,158,0.6,0.9,77,0.00,,,0.00,WSDL version 420,2013-06-06 12:17:00,
2013-06-06 08:27:00,65.7,58.3,27.79,SSW,203,0.0,1.1,77,0.00,,,0.00,WSDL version 420,2013-06-06 12:27:00,
2013-06-06 08:32:00,65.8,58.4,27.79,ENE,73,1.0,1.3,77,0.00,,,0.00,WSDL version 420,2013-06-06 12:32:00,
2013-06-06 08:37:00,65.8,58.4,27.79,SSE,158,0.7,1.3,77,0.00,,,0.00,WSDL version 420,2013-06-06 12:37:00,
2013-06-06 08:42:00,65.8,58.4,27.79,SE,135,0.0,1.3,77,0.00,,,0.00,WSDL version 420,2013-06-06 12:42:00,
2013-06-06 08:47:00,65.8,58.4,27.79,SE,128,0.0,1.3,77,0.00,,,0.00,WSDL version 420,2013-06-06 12:47:00,
2013-06-06 08:57:00,66.0,58.6,27.76,SE,144,0.9,2.5,77,0.00,,,0.00,WSDL version 420,2013-06-06 12:57:00,
2013-06-06 09:02:00,66.2,58.6,27.76,South,186,0.0,2.2,77,0.00,,,0.00,WSDL version 420,2013-06-06 13:02:00,
2013-06-06 09:12:00,66.7,59.2,27.79,SSW,203,0.0,0.0,77,0.00,,,0.00,WSDL version 420,2013-06-06 13:12:00,
2013-06-06 09:17:00,66.9,59.2,27.79,WNW,293,0.0,0.0,76,0.00,,,0.00,WSDL version 420,2013-06-06 13:17:00,
2013-06-06 09:27:00,67.0,59.2,27.76,WSW,243,0.0,1.6,76,0.00,,,0.00,WSDL version 420,2013-06-06 13:27:00,
2013-06-06 09:32:00,67.2,59.3,27.76,SSE,158,0.0,1.6,76,0.00,,,0.00,WSDL version 420,2013-06-06 13:32:00,
2013-06-06 09:42:00,67.8,59.9,27.76,North,8,0.0,0.0,76,0.00,,,0.00,WSDL version 420,2013-06-06 13:42:00,
2013-06-06 09:47:00,68.0,59.8,27.76,NE,53,0.0,0.0,75,0.00,,,0.00,WSDL version 420,2013-06-06 13:47:00,
2013-06-06 09:52:00,68.2,60.0,27.76,ENE,68,0.0,0.0,75,0.00,,,0.00,WSDL version 420,2013-06-06 13:52:00,
2013-06-06 09:57:00,68.4,59.8,27.76,East,101,0.0,0.0,74,0.00,,,0.00,WSDL version 420,2013-06-06 13:57:00,
2013-06-06 10:07:00,68.9,60.3,27.76,South,180,0.0,0.0,74,0.00,,,0.00,WSDL version 420,2013-06-06 14:07:00,
2013-06-06 10:12:00,69.1,60.5,27.76,North,360,0.0,1.1,74,-99.99,,,-99.99,WSDL version 420,2013-06-06 14:12:00,
2013-06-06 10:22:00,69.3,60.6,27.76,South,173,0.0,0.0,74,0.00,,,0.00,WSDL version 420,2013-06-06 14:22:00,
2013-06-06 10:27:00,69.3,60.2,27.76,NNE,23,0.0,0.0,73,0.00,,,0.00,WSDL version 420,2013-06-06 14:27:00,
2013-06-06 10:32:00,69.4,60.8,27.76,SSW,203,0.0,0.0,74,0.00,,,0.00,WSDL version 420,2013-06-06 14:32:00,
2013-06-06 10:37:00,69.7,60.8,27.76,SSW,203,0.0,0.0,73,0.00,,,0.00,WSDL version 420,2013-06-06 14:37:00,
2013-06-06 10:42:00,70.0,60.9,27.76,SSW,203,0.0,0.0,73,-99.99,,,-99.99,WSDL version 420,2013-06-06 14:42:00,
2013-06-06 10:47:00,70.3,60.9,27.76,East,83,0.0,0.0,72,0.00,,,0.00,WSDL version 420,2013-06-06 14:47:00,
2013-06-06 10:52:00,70.6,61.2,27.76,SSE,158,0.0,0.0,72,0.00,,,0.00,WSDL version 420,2013-06-06 14:52:00,
2013-06-06 10:57:00,71.2,61.5,27.76,ESE,113,0.0,0.0,71,0.00,,,0.00,WSDL version 420,2013-06-06 14:57:00,
2013-06-06 11:07:00,71.8,61.7,27.76,SE,143,0.0,0.0,70,0.00,,,0.00,WSDL version 420,2013-06-06 15:07:00,
2013-06-06 11:12:00,72.0,61.7,27.76,NNW,338,0.0,0.0,70,0.00,,,0.00,WSDL version 420,2013-06-06 15:12:00,
2013-06-06 11:17:00,72.1,61.8,27.76,WNW,293,0.0,2.0,70,0.00,,,0.00,WSDL version 420,2013-06-06 15:17:00,
2013-06-06 11:22:00,72.1,61.4,27.76,SSE,158,0.0,2.0,69,0.00,,,0.00,WSDL version 420,2013-06-06 15:22:00,
2013-06-06 11:27:00,72.4,61.7,27.76,WSW,248,0.0,1.6,69,0.00,,,0.00,WSDL version 420,2013-06-06 15:27:00,
2013-06-06 11:32:00,72.8,62.5,27.76,NNW,330,0.0,1.6,70,0.00,,,0.00,WSDL version 420,2013-06-06 15:32:00,
2013-06-06 11:37:00,72.9,62.1,27.76,SSW,197,0.0,0.0,69,0.00,,,0.00,WSDL version 420,2013-06-06 15:37:00,
2013-06-06 11:42:00,73.0,62.1,27.76,SW,218,0.0,0.0,68,0.00,,,0.00,WSDL version 420,2013-06-06 15:42:00,
2013-06-06 11:48:00,73.5,62.3,27.76,North,353,1.0,1.3,68,0.00,,,0.00,WSDL version 420,2013-06-06 15:48:00,
2013-06-06 11:53:00,73.6,62.4,27.76,West,264,0.0,1.3,68,0.00,,,0.00,WSDL version 420,2013-06-06 15:53:00,
2013-06-06 11:58:00,73.6,62.0,27.76,West,264,1.7,2.5,67,0.00,,,0.00,WSDL version 420,2013-06-06 15:58:00,
2013-06-06 12:03:00,73.8,62.1,27.76,SE,143,1.3,2.5,67,0.00,,,0.00,WSDL version 420,2013-06-06 16:03:00,
2013-06-06 12:08:00,74.7,62.8,27.76,NW,326,0.8,2.5,66,0.00,,,0.00,WSDL version 420,2013-06-06 16:08:00,
2013-06-06 12:13:00,74.5,62.0,27.76,NW,315,1.3,2.0,65,0.00,,,0.00,WSDL version 420,2013-06-06 16:13:00,
2013-06-06 12:18:00,74.9,62.2,27.76,NW,323,0.0,2.9,64,0.00,,,0.00,WSDL version 420,2013-06-06 16:18:00,
2013-06-06 12:23:00,75.6,62.8,27.76,East,96,0.3,2.9,65,0.00,,,0.00,WSDL version 420,2013-06-06 16:23:00,
2013-06-06 12:28:00,75.7,62.5,27.76,NNW,338,0.8,2.5,63,0.00,,,0.00,WSDL version 420,2013-06-06 16:28:00,
2013-06-06 12:33:00,75.5,61.7,27.76,WNW,293,1.0,2.5,63,0.00,,,0.00,WSDL version 420,2013-06-06 16:33:00,
2013-06-06 12:38:00,75.4,61.9,27.76,NW,308,1.6,2.7,63,0.00,,,0.00,WSDL version 420,2013-06-06 16:38:00,
2013-06-06 12:43:00,75.0,61.7,27.76,ENE,60,1.3,2.7,64,0.00,,,0.00,WSDL version 420,2013-06-06 16:43:00,
2013-06-06 12:48:00,74.7,61.7,27.76,South,188,1.1,3.4,64,0.00,,,0.00,WSDL version 420,2013-06-06 16:48:00,
2013-06-06 12:53:00,74.8,61.8,27.76,NW,315,0.0,3.4,64,0.00,,,0.00,WSDL version 420,2013-06-06 16:53:00,
2013-06-06 12:58:00,74.5,61.6,27.76,SW,218,1.0,1.6,64,0.00,,,0.00,WSDL version 420,2013-06-06 16:58:00,
2013-06-06 13:03:00,74.5,61.1,27.76,West,270,1.3,2.2,63,0.00,,,0.00,WSDL version 420,2013-06-06 17:03:00,
2013-06-06 13:10:00,74.8,61.3,27.76,WNW,300,0.0,3.8,63,0.00,,,0.00,WSDL version 420,2013-06-06 17:10:00,
2013-06-06 13:20:00,75.2,61.5,27.76,North,11,2.2,3.6,62,0.00,,,0.00,WSDL version 420,2013-06-06 17:20:00,
2013-06-06 13:25:00,75.3,60.9,27.73,SW,225,1.3,3.6,61,0.00,,,0.00,WSDL version 420,2013-06-06 17:25:00,
2013-06-06 13:30:00,75.0,60.5,27.73,South,169,2.6,3.8,60,0.00,,,0.00,WSDL version 420,2013-06-06 17:30:00,
2013-06-06 13:35:00,74.9,60.4,27.73,NW,308,1.6,3.8,61,0.00,,,0.00,WSDL version 420,2013-06-06 17:35:00,
2013-06-06 13:40:00,75.3,60.6,27.73,East,98,1.3,2.5,60,0.00,,,0.00,WSDL version 420,2013-06-06 17:40:00,
2013-06-06 13:45:00,75.6,60.7,27.73,NNW,338,0.0,2.5,60,0.00,,,0.00,WSDL version 420,2013-06-06 17:45:00,
2013-06-06 13:55:00,77.1,62.1,27.73,NW,321,0.3,1.1,60,0.00,,,0.00,WSDL version 420,2013-06-06 17:55:00,
2013-06-06 14:00:00,76.7,61.8,27.73,SSW,203,2.9,2.9,60,0.00,,,0.00,WSDL version 420,2013-06-06 18:00:00,
2013-06-06 14:05:00,76.5,60.9,27.73,South,173,1.9,2.9,58,0.00,,,0.00,WSDL version 420,2013-06-06 18:05:00,
2013-06-06 14:10:00,76.5,61.0,27.73,SSE,150,0.9,2.7,59,0.00,,,0.00,WSDL version 420,2013-06-06 18:10:00,
2013-06-06 14:15:00,76.7,61.3,27.73,SE,124,2.3,3.6,59,0.00,,,0.00,WSDL version 420,2013-06-06 18:15:00,
2013-06-06 14:20:00,76.9,61.2,27.73,South,173,0.4,3.6,58,0.00,,,0.00,WSDL version 420,2013-06-06 18:20:00,
2013-06-06 14:25:00,76.9,61.2,27.73,NW,304,0.6,3.6,58,0.00,,,0.00,WSDL version 420,2013-06-06 18:25:00,
2013-06-06 14:30:00,76.9,61.0,27.73,SW,218,0.6,3.4,58,0.00,,,0.00,WSDL version 420,2013-06-06 18:30:00,
2013-06-06 14:35:00,76.3,60.7,27.73,SSW,195,0.0,3.4,59,0.00,,,0.00,WSDL version 420,2013-06-06 18:35:00,
2013-06-06 14:40:00,76.0,60.5,27.73,North,360,2.9,2.9,59,0.00,,,0.00,WSDL version 420,2013-06-06 18:40:00,
2013-06-06 14:45:00,75.7,59.9,27.73,WSW,242,0.0,2.9,58,0.00,,,0.00,WSDL version 420,2013-06-06 18:45:00,
2013-06-06 14:50:00,75.7,59.9,27.73,WNW,285,0.4,1.6,58,0.00,,,0.00,WSDL version 420,2013-06-06 18:50:00,
2013-06-06 14:55:00,75.9,60.0,27.70,SE,135,2.2,2.2,58,0.00,,,0.00,WSDL version 420,2013-06-06 18:55:00,
2013-06-06 15:00:00,75.9,60.1,27.70,South,180,1.9,2.5,58,0.00,,,0.00,WSDL version 420,2013-06-06 19:00:00,
2013-06-06 15:05:00,76.0,60.2,27.70,SW,233,0.6,2.5,58,0.00,,,0.00,WSDL version 420,2013-06-06 19:05:00,
2013-06-06 15:10:00,76.1,60.6,27.70,NNE,23,1.6,2.5,59,0.00,,,0.00,WSDL version 420,2013-06-06 19:10:00,
2013-06-06 15:15:00,76.1,60.7,27.70,North,354,2.1,2.7,59,0.00,,,0.00,WSDL version 420,2013-06-06 19:15:00,
2013-06-06 15:20:00,75.9,60.4,27.70,East,79,0.0,2.7,59,0.00,,,0.00,WSDL version 420,2013-06-06 19:20:00,
2013-06-06 15:25:00,75.9,60.6,27.70,West,263,1.4,2.2,59,0.00,,,0.00,WSDL version 420,2013-06-06 19:25:00,
2013-06-06 15:30:00,76.0,60.8,27.70,NW,323,0.0,2.2,60,0.00,,,0.00,WSDL version 420,2013-06-06 19:30:00,
2013-06-06 15:35:00,76.3,60.9,27.70,WSW,248,0.4,1.6,59,0.00,,,0.00,WSDL version 420,2013-06-06 19:35:00,
2013-06-06 15:40:00,76.5,61.1,27.70,WNW,293,0.0,1.3,59,0.00,,,0.00,WSDL version 420,2013-06-06 19:40:00,
2013-06-06 15:45:00,76.5,61.1,27.70,South,185,0.0,0.0,59,0.00,,,0.00,WSDL version 420,2013-06-06 19:45:00,
2013-06-06 15:50:00,76.4,60.5,27.70,WSW,255,0.0,0.0,58,0.00,,,0.00,WSDL version 420,2013-06-06 19:50:00,
2013-06-06 15:55:00,76.6,60.7,27.70,South,188,0.4,1.3,58,-99.99,,,-99.99,WSDL version 420,2013-06-06 19:55:00,
2013-06-06 16:00:00,76.9,60.8,27.70,South,169,0.0,2.9,57,0.00,,,0.00,WSDL version 420,2013-06-06 20:00:00,
2013-06-06 16:05:00,77.1,60.7,27.70,ESE,113,0.0,2.9,57,0.00,,,0.00,WSDL version 420,2013-06-06 20:05:00,
2013-06-06 16:10:00,77.0,60.6,27.70,SE,128,0.7,2.5,57,0.00,,,0.00,WSDL version 420,2013-06-06 20:10:00,
2013-06-06 16:15:00,77.0,60.9,27.70,SW,221,0.4,2.0,58,0.00,,,0.00,WSDL version 420,2013-06-06 20:15:00,
2013-06-06 16:20:00,77.2,60.8,27.70,South,173,1.0,2.0,57,0.00,,,0.00,WSDL version 420,2013-06-06 20:20:00,
2013-06-06 16:25:00,77.3,60.9,27.70,SSW,195,0.0,2.0,57,0.00,,,0.00,WSDL version 420,2013-06-06 20:25:00,
2013-06-06 16:30:00,77.5,61.1,27.70,WNW,287,0.2,1.3,57,0.00,,,0.00,WSDL version 420,2013-06-06 20:30:00,
2013-06-06 16:35:00,77.4,60.8,27.70,East,98,1.6,1.6,56,0.00,,,0.00,WSDL version 420,2013-06-06 20:35:00,
2013-06-06 16:40:00,77.2,60.5,27.70,NNW,338,0.0,2.5,57,0.00,,,0.00,WSDL version 420,2013-06-06 20:40:00,
2013-06-06 16:45:00,77.2,60.8,27.70,NW,311,0.0,2.5,57,0.00,,,0.00,WSDL version 420,2013-06-06 20:45:00,
2013-06-06 16:50:00,76.9,60.5,27.70,West,270,0.0,0.9,57,0.00,,,0.00,WSDL version 420,2013-06-06 20:50:00,
2013-06-06 16:55:00,76.7,60.7,27.70,NW,309,0.0,1.1,57,0.00,,,0.00,WSDL version 420,2013-06-06 20:55:00,
2013-06-06 17:01:00,76.6,60.3,27.70,SE,143,0.4,2.0,57,0.00,,,0.00,WSDL version 420,2013-06-06 21:01:00,
2013-06-06 17:08:00,76.6,60.3,27.70,ENE,75,0.6,1.3,57,0.00,,,0.00,WSDL version 420,2013-06-06 21:08:00,
2013-06-06 17:13:00,76.5,60.3,27.70,South,180,1.0,2.0,58,0.00,,,0.00,WSDL version 420,2013-06-06 21:13:00,
2013-06-06 17:18:00,76.5,60.6,27.70,NNE,23,0.7,2.0,58,0.00,,,0.00,WSDL version 420,2013-06-06 21:18:00,
2013-06-06 17:23:00,76.6,60.2,27.70,West,263,0.3,1.3,57,0.00,,,0.00,WSDL version 420,2013-06-06 21:23:00,
2013-06-06 17:28:00,76.8,60.6,27.70,NNE,23,0.5,1.1,57,0.00,,,0.00,WSDL version 420,2013-06-06 21:28:00,
2013-06-06 17:33:00,76.6,60.1,27.70,NE,45,0.0,1.3,56,0.00,,,0.00,WSDL version 420,2013-06-06 21:33:00,
2013-06-06 17:38:00,76.7,60.0,27.70,WNW,293,0.6,1.3,57,0.00,,,0.00,WSDL version 420,2013-06-06 21:38:00,
2013-06-06 17:43:00,76.6,59.8,27.70,SE,143,0.5,2.9,56,0.00,,,0.00,WSDL version 420,2013-06-06 21:43:00,
2013-06-06 17:48:00,76.6,60.0,27.70,WSW,248,0.0,2.9,56,0.00,,,0.00,WSDL version 420,2013-06-06 21:48:00,
2013-06-06 17:55:00,76.7,60.1,27.70,West,270,0.0,0.9,57,0.00,,,0.00,WSDL version 420,2013-06-06 21:55:00,
2013-06-06 18:00:00,76.8,60.5,27.70,SSW,203,0.0,3.1,57,0.00,,,0.00,WSDL version 420,2013-06-06 22:00:00,
2013-06-06 18:05:00,76.7,60.3,27.70,SSE,150,0.3,3.1,57,0.00,,,0.00,WSDL version 420,2013-06-06 22:05:00,
2013-06-06 18:10:00,76.9,60.5,27.67,North,8,0.5,1.6,57,0.00,,,0.00,WSDL version 420,2013-06-06 22:10:00,
2013-06-06 18:15:00,77.2,60.8,27.67,South,173,0.4,1.6,57,0.00,,,0.00,WSDL version 420,2013-06-06 22:15:00,
2013-06-06 18:20:00,77.2,60.3,27.67,SW,225,0.0,1.6,56,0.00,,,0.00,WSDL version 420,2013-06-06 22:20:00,
2013-06-06 18:25:00,77.4,60.5,27.67,SW,214,0.8,1.6,56,0.00,,,0.00,WSDL version 420,2013-06-06 22:25:00,
2013-06-06 18:30:00,77.2,59.5,27.67,ESE,113,1.2,2.7,54,0.00,,,0.00,WSDL version 420,2013-06-06 22:30:00,
2013-06-06 18:35:00,76.9,59.3,27.67,East,90,0.0,2.7,55,0.00,,,0.00,WSDL version 420,2013-06-06 22:35:00,
2013-06-06 18:40:00,76.7,58.8,27.67,West,270,0.9,2.5,54,0.00,,,0.00,WSDL version 420,2013-06-06 22:40:00,
2013-06-06 18:45:00,76.6,59.1,27.67,SSW,195,1.0,1.3,55,0.00,,,0.00,WSDL version 420,2013-06-06 22:45:00,
2013-06-06 18:50:00,76.7,59.4,27.67,ENE,62,1.1,1.6,55,0.00,,,0.00,WSDL version 420,2013-06-06 22:50:00,
2013-06-06 18:55:00,76.7,59.0,27.67,SSE,158,0.7,2.2,54,0.00,,,0.00,WSDL version 420,2013-06-06 22:55:00,
2013-06-06 19:00:00,76.5,58.4,27.67,ENE,75,1.2,2.2,54,0.00,,,0.00,WSDL version 420,2013-06-06 23:00:00,
2013-06-06 19:05:00,76.5,58.6,27.67,SW,233,0.7,2.2,54,0.00,,,0.00,WSDL version 420,2013-06-06 23:05:00,
2013-06-06 19:10:00,76.5,59.0,27.67,WSW,255,0.0,1.1,55,0.00,,,0.00,WSDL version 420,2013-06-06 23:10:00,
2013-06-06 19:15:00,76.3,58.6,27.67,ESE,105,0.0,2.0,55,0.00,,,0.00,WSDL version 420,2013-06-06 23:15:00,
2013-06-06 19:20:00,76.1,58.8,27.67,WNW,293,0.0,2.0,55,0.00,,,0.00,WSDL version 420,2013-06-06 23:20:00,
2013-06-06 19:25:00,75.9,58.8,27.67,SSE,158,0.0,1.1,55,0.00,,,0.00,WSDL version 420,2013-06-06 23:25:00,
2013-06-06 19:30:00,75.8,58.8,27.67,ENE,68,0.0,0.0,55,0.00,,,0.00,WSDL version 420,2013-06-06 23:30:00,
2013-06-06 19:35:00,75.7,58.6,27.67,NE,45,0.0,0.0,56,0.00,,,0.00,WSDL version 420,2013-06-06 23:35:00,
2013-06-06 19:40:00,75.6,58.9,27.67,ESE,120,0.0,0.0,57,0.00,,,0.00,WSDL version 420,2013-06-06 23:40:00,
2013-06-06 19:45:00,75.4,59.2,27.67,ESE,107,0.2,0.9,57,0.00,,,0.00,WSDL version 420,2013-06-06 23:45:00,
2013-06-06 19:50:00,75.4,59.4,27.67,NE,45,0.3,0.9,58,0.00,,,0.00,WSDL version 420,2013-06-06 23:50:00,
2013-06-06 19:55:00,75.3,59.0,27.67,NE,45,0.2,2.2,57,0.00,,,0.00,WSDL version 420,2013-06-06 23:55:00,
2013-06-06 20:00:00,75.1,58.8,27.67,ENE,75,0.0,2.2,57,0.00,,,0.00,WSDL version 420,2013-06-07 00:00:00,
2013-06-06 20:05:00,75.0,59.3,27.67,East,90,0.0,0.9,58,0.00,,,0.00,WSDL version 420,2013-06-07 00:05:00,
2013-06-06 20:10:00,74.9,59.5,27.67,East,90,0.0,0.9,59,0.00,,,0.00,WSDL version 420,2013-06-07 00:10:00,
2013-06-06 20:15:00,74.7,59.4,27.67,East,90,0.0,0.0,59,0.00,,,0.00,WSDL version 420,2013-06-07 00:15:00,
2013-06-06 20:20:00,74.5,59.3,27.67,East,90,0.0,0.0,59,0.00,,,0.00,WSDL version 420,2013-06-07 00:20:00,
2013-06-06 20:25:00,74.4,59.1,27.67,SE,140,0.0,0.0,59,0.00,,,0.00,WSDL version 420,2013-06-07 00:25:00,
2013-06-06 20:30:00,74.2,59.1,27.67,SE,135,0.0,0.0,60,0.00,,,0.00,WSDL version 420,2013-06-07 00:30:00,
2013-06-06 20:35:00,73.9,59.2,27.67,ENE,68,0.0,0.0,60,0.00,,,0.00,WSDL version 420,2013-06-07 00:35:00,
2013-06-06 20:40:00,73.7,59.3,27.70,East,96,0.0,0.0,61,0.00,,,0.00,WSDL version 420,2013-06-07 00:40:00,
2013-06-06 20:45:00,73.6,59.3,27.70,SE,128,0.0,0.9,61,0.00,,,0.00,WSDL version 420,2013-06-07 00:45:00,
2013-06-06 20:50:00,73.6,59.3,27.70,ENE,60,0.0,0.9,61,0.00,,,0.00,WSDL version 420,2013-06-07 00:50:00,
2013-06-06 20:55:00,73.4,59.4,27.70,ENE,68,0.0,0.9,62,0.00,,,0.00,WSDL version 420,2013-06-07 00:55:00,
2013-06-06 21:05:00,73.0,59.7,27.70,ENE,68,0.0,0.0,63,0.00,,,0.00,WSDL version 420,2013-06-07 01:05:00,
2013-06-06 21:10:00,72.9,59.5,27.67,ENE,68,0.0,0.0,63,0.00,,,0.00,WSDL version 420,2013-06-07 01:10:00,
2013-06-06 21:15:00,72.7,59.4,27.67,ENE,68,0.0,0.0,63,0.00,,,0.00,WSDL version 420,2013-06-07 01:15:00,
2013-06-06 21:20:00,72.7,59.7,27.67,ENE,68,0.0,0.0,64,0.00,,,0.00,WSDL version 420,2013-06-07 01:20:00,
2013-06-06 21:25:00,72.4,59.6,27.67,ENE,68,0.0,0.0,64,0.00,,,0.00,WSDL version 420,2013-06-07 01:25:00,
2013-06-06 21:30:00,72.2,59.6,27.67,NNE,15,0.0,0.0,65,0.00,,,0.00,WSDL version 420,2013-06-07 01:30:00,
2013-06-06 21:35:00,72.0,59.9,27.67,NNE,23,0.0,0.0,66,0.00,,,0.00,WSDL version 420,2013-06-07 01:35:00,
2013-06-06 21:40:00,71.8,59.8,27.67,NNE,23,0.0,0.0,66,0.00,,,0.00,WSDL version 420,2013-06-07 01:40:00,
2013-06-06 21:45:00,71.7,59.8,27.67,NNE,23,0.7,2.0,66,0.00,,,0.00,WSDL version 420,2013-06-07 01:45:00,
2013-06-06 21:50:00,71.3,59.8,27.67,NNE,23,0.0,2.0,67,0.00,,,0.00,WSDL version 420,2013-06-07 01:50:00,
2013-06-06 21:55:00,71.4,60.1,27.70,NNE,23,0.0,0.0,68,0.00,,,0.00,WSDL version 420,2013-06-07 01:55:00,
2013-06-06 22:00:00,71.2,60.1,27.70,NNE,23,0.0,0.0,68,0.00,,,0.00,WSDL version 420,2013-06-07 02:00:00,
2013-06-06 22:05:00,71.2,60.1,27.70,NNE,23,0.0,0.0,68,0.00,,,0.00,WSDL version 420,2013-06-07 02:05:00,
2013-06-06 22:10:00,71.2,60.1,27.70,NNE,23,0.0,0.0,68,0.00,,,0.00,WSDL version 420,2013-06-07 02:10:00,
2013-06-06 22:15:00,71.2,60.2,27.70,NNE,23,0.0,0.0,69,0.00,,,0.00,WSDL version 420,2013-06-07 02:15:00,
2013-06-06 22:20:00,71.2,60.5,27.70,NE,45,0.0,0.0,69,0.00,,,0.00,WSDL version 420,2013-06-07 02:20:00,
2013-06-06 22:25:00,71.2,60.5,27.70,NE,38,0.3,1.6,69,0.00,,,0.00,WSDL version 420,2013-06-07 02:25:00,
2013-06-06 22:30:00,71.1,60.8,27.70,ENE,68,0.0,1.6,70,0.00,,,0.00,WSDL version 420,2013-06-07 02:30:00,
2013-06-06 22:35:00,71.1,60.9,27.70,ENE,68,0.0,0.0,71,0.00,,,0.00,WSDL version 420,2013-06-07 02:35:00,
2013-06-06 22:40:00,71.1,61.2,27.70,ENE,68,0.0,0.0,71,0.00,,,0.00,WSDL version 420,2013-06-07 02:40:00,
2013-06-06 22:45:00,71.1,61.2,27.70,ENE,68,0.0,0.0,71,0.00,,,0.00,WSDL version 420,2013-06-07 02:45:00,
2013-06-06 22:50:00,71.0,61.1,27.70,ENE,68,0.0,0.0,71,0.00,,,0.00,WSDL version 420,2013-06-07 02:50:00,
2013-06-06 22:55:00,70.9,61.0,27.70,ENE,68,0.0,0.0,71,0.00,,,0.00,WSDL version 420,2013-06-07 02:55:00,
2013-06-06 23:00:00,70.9,61.3,27.70,ENE,68,0.0,0.0,72,0.00,,,0.00,WSDL version 420,2013-06-07 03:00:00,
2013-06-06 23:05:00,70.7,61.2,27.70,ENE,68,0.0,0.0,72,0.00,,,0.00,WSDL version 420,2013-06-07 03:05:00,
2013-06-06 23:10:00,70.7,61.2,27.70,ENE,68,0.0,0.0,72,0.00,,,0.00,WSDL version 420,2013-06-07 03:10:00,
2013-06-06 23:15:00,70.7,61.2,27.70,ENE,68,0.0,0.0,72,0.00,,,0.00,WSDL version 420,2013-06-07 03:15:00,
2013-06-06 23:20:00,70.7,61.2,27.70,ENE,68,0.0,0.0,72,0.00,,,0.00,WSDL version 420,2013-06-07 03:20:00,
2013-06-06 23:25:00,70.5,61.1,27.70,ENE,68,0.0,0.0,72,0.00,,,0.00,WSDL version 420,2013-06-07 03:25:00,
2013-06-06 23:30:00,70.5,61.1,27.70,ENE,68,0.0,0.0,72,0.00,,,0.00,WSDL version 420,2013-06-07 03:30:00,
2013-06-06 23:35:00,70.5,60.7,27.70,ENE,68,0.0,0.0,71,0.00,,,0.00,WSDL version 420,2013-06-07 03:35:00,
2013-06-06 23:40:00,70.3,60.5,27.70,ENE,68,0.0,0.0,71,0.00,,,0.00,WSDL version 420,2013-06-07 03:40:00,
2013-06-06 23:45:00,70.3,60.5,27.70,ENE,68,0.0,0.0,71,0.00,,,0.00,WSDL version 420,2013-06-07 03:45:00,
2013-06-06 23:50:00,70.3,60.8,27.70,SSE,158,0.0,0.9,72,0.00,,,0.00,WSDL version 420,2013-06-07 03:50:00,
2013-06-06 23:55:00,70.2,60.7,27.67,SSW,203,0.0,0.9,72,-99.99,,,-99.99,WSDL version 420,2013-06-07 03:55:00,